RYR21F EDDH-EHAM

Flight info

Callsign RYR21F
Flight time 0h 43m
Altitude 30000
Route WSN5G WSN N125 BLUFA
Aircraft B38M/M-SDE1FGHILORVWXY/HB1

Departure

Time 2026-05-06 17:21
Airport Hamburg Helmut Schmidt Airport (EDDH)

Arrival

Time 2026-05-06 18:04
Airport Amsterdam Airport Schiphol (EHAM)
Time Latitude Longitude Altitude Speed Heading
2026-05-06 17:01 53.62770 10.00265 48 ft 0 kts 63°
2026-05-06 17:11 53.62767 10.00255 47 ft 0 kts 63°
2026-05-06 17:15 53.62760 10.00230 45 ft 2 kts 63°
2026-05-06 17:15 53.62752 10.00205 46 ft 2 kts 63°
2026-05-06 17:16 53.62746 10.00187 45 ft 2 kts 58°
2026-05-06 17:16 53.62738 10.00165 45 ft 2 kts 58°
2026-05-06 17:16 53.62736 10.00163 43 ft 0 kts 71°
2026-05-06 17:16 53.62734 10.00168 43 ft 1 kts 123°
2026-05-06 17:17 53.62733 10.00168 43 ft 0 kts 140°
2026-05-06 17:18 53.62729 10.00173 44 ft 2 kts 144°
2026-05-06 17:18 53.62703 10.00196 49 ft 7 kts 152°
2026-05-06 17:18 53.62639 10.00251 49 ft 14 kts 155°
2026-05-06 17:18 53.62579 10.00225 47 ft 8 kts 234°
2026-05-06 17:19 53.62570 10.00199 49 ft 0 kts 241°
2026-05-06 17:19 53.62570 10.00198 49 ft 1 kts 241°
2026-05-06 17:19 53.62557 10.00160 49 ft 7 kts 243°
2026-05-06 17:19 53.62554 10.00033 47 ft 15 kts 302°
2026-05-06 17:20 53.62671 9.99915 50 ft 25 kts 332°
2026-05-06 17:20 53.63071 9.99570 48 ft 105 kts 333°
2026-05-06 17:20 53.63922 9.98839 46 ft 170 kts 334°
2026-05-06 17:20 53.65021 9.97856 620 ft 185 kts 334°
2026-05-06 17:21 53.66157 9.96809 1604 ft 185 kts 336°
2026-05-06 17:21 53.67223 9.95706 2499 ft 181 kts 333°
2026-05-06 17:21 53.68347 9.94546 2941 ft 206 kts 337°
2026-05-06 17:21 53.69699 9.93374 3624 ft 229 kts 336°
2026-05-06 17:22 53.70876 9.91425 4505 ft 252 kts 299°
2026-05-06 17:22 53.71153 9.88461 5489 ft 268 kts 262°
2026-05-06 17:22 53.70703 9.85362 6544 ft 275 kts 252°
2026-05-06 17:22 53.70078 9.82285 7626 ft 279 kts 252°
2026-05-06 17:23 53.69420 9.79144 8597 ft 290 kts 252°
2026-05-06 17:23 53.68754 9.75890 9615 ft 294 kts 253°
2026-05-06 17:23 53.68112 9.72583 10139 ft 298 kts 255°
2026-05-06 17:23 53.67480 9.69270 10029 ft 295 kts 254°
2026-05-06 17:24 53.66822 9.65890 10114 ft 313 kts 253°
2026-05-06 17:24 53.66110 9.62264 10534 ft 335 kts 253°
2026-05-06 17:24 53.65316 9.58443 10979 ft 356 kts 245°
2026-05-06 17:24 53.63940 9.54881 11518 ft 370 kts 234°
2026-05-06 17:25 53.62413 9.51311 12121 ft 381 kts 234°
2026-05-06 17:25 53.60864 9.47689 13015 ft 381 kts 233°
2026-05-06 17:25 53.59308 9.44061 13844 ft 384 kts 233°
2026-05-06 17:25 53.57740 9.40416 14640 ft 384 kts 233°
2026-05-06 17:26 53.56166 9.36761 15340 ft 387 kts 233°
2026-05-06 17:26 53.54595 9.33120 15937 ft 392 kts 234°
2026-05-06 17:26 53.52980 9.29379 16535 ft 397 kts 234°
2026-05-06 17:26 53.51356 9.25623 17237 ft 399 kts 233°
2026-05-06 17:27 53.49710 9.21825 17817 ft 404 kts 234°
2026-05-06 17:27 53.48052 9.18003 18417 ft 406 kts 233°
2026-05-06 17:27 53.46381 9.14157 18948 ft 409 kts 234°
2026-05-06 17:27 53.44698 9.10288 19446 ft 412 kts 233°
2026-05-06 17:28 53.42998 9.06390 19966 ft 415 kts 233°
2026-05-06 17:28 53.41289 9.02472 20478 ft 418 kts 233°
2026-05-06 17:28 53.39567 8.98533 20961 ft 421 kts 233°
2026-05-06 17:28 53.37827 8.94559 21461 ft 424 kts 233°
2026-05-06 17:29 53.36077 8.90568 21990 ft 427 kts 234°
2026-05-06 17:29 53.34512 8.86343 22463 ft 430 kts 246°
2026-05-06 17:29 53.33816 8.83238 22821 ft 431 kts 250°
2026-05-06 17:29 53.32759 8.78510 23266 ft 435 kts 249°
2026-05-06 17:30 53.31696 8.73760 23730 ft 437 kts 250°
2026-05-06 17:30 53.30632 8.68978 24177 ft 440 kts 250°
2026-05-06 17:30 53.29575 8.64173 24612 ft 442 kts 250°
2026-05-06 17:30 53.28513 8.59323 25038 ft 445 kts 250°
2026-05-06 17:31 53.27444 8.54461 25466 ft 448 kts 250°
2026-05-06 17:31 53.26402 8.49536 25881 ft 451 kts 252°
2026-05-06 17:31 53.25477 8.44521 26299 ft 453 kts 252°
2026-05-06 17:31 53.24533 8.39501 26800 ft 454 kts 252°
2026-05-06 17:32 53.23581 8.34490 27388 ft 452 kts 252°
2026-05-06 17:32 53.22626 8.29495 27960 ft 451 kts 252°
2026-05-06 17:32 53.21672 8.24524 28543 ft 450 kts 252°
2026-05-06 17:32 53.20719 8.19563 29123 ft 448 kts 251°
2026-05-06 17:33 53.19767 8.14623 29722 ft 447 kts 251°
2026-05-06 17:33 53.18829 8.09665 29905 ft 446 kts 251°
2026-05-06 17:33 53.17909 8.04766 29903 ft 443 kts 251°
2026-05-06 17:34 53.16057 7.94967 29895 ft 443 kts 251°
2026-05-06 17:34 53.14198 7.85188 29895 ft 443 kts 251°
2026-05-06 17:35 53.12330 7.75413 29896 ft 443 kts 251°
2026-05-06 17:35 53.10459 7.65670 29709 ft 436 kts 251°
2026-05-06 17:36 53.08599 7.56046 27822 ft 438 kts 251°
2026-05-06 17:36 53.07664 7.51224 26853 ft 439 kts 251°
2026-05-06 17:36 53.06723 7.46391 26140 ft 437 kts 251°
2026-05-06 17:36 53.05784 7.41576 25952 ft 441 kts 251°
2026-05-06 17:37 53.04830 7.36697 25874 ft 445 kts 251°
2026-05-06 17:37 53.03871 7.31803 25892 ft 446 kts 251°
2026-05-06 17:37 53.02908 7.26904 25883 ft 446 kts 251°
2026-05-06 17:37 53.01941 7.22005 25899 ft 448 kts 251°
2026-05-06 17:38 53.00944 7.17093 25893 ft 449 kts 251°
2026-05-06 17:38 52.99949 7.12192 25869 ft 443 kts 251°
2026-05-06 17:38 52.98974 7.07397 25079 ft 439 kts 251°
2026-05-06 17:38 52.97994 7.02586 24091 ft 441 kts 251°
2026-05-06 17:39 52.97007 6.97752 23013 ft 444 kts 251°
2026-05-06 17:39 52.96013 6.92892 21813 ft 447 kts 251°
2026-05-06 17:39 52.95029 6.88095 20658 ft 434 kts 251°
2026-05-06 17:39 52.94064 6.83401 19356 ft 426 kts 251°
2026-05-06 17:40 52.93125 6.78848 18930 ft 405 kts 251°
2026-05-06 17:40 52.92217 6.74452 18351 ft 401 kts 251°
2026-05-06 17:40 52.91318 6.70113 17801 ft 395 kts 252°
2026-05-06 17:40 52.90432 6.65839 17257 ft 390 kts 252°
2026-05-06 17:41 52.89557 6.61631 16750 ft 384 kts 252°
2026-05-06 17:41 52.88691 6.57479 16261 ft 379 kts 252°
2026-05-06 17:41 52.87839 6.53395 15812 ft 373 kts 252°
2026-05-06 17:41 52.86991 6.49340 15182 ft 373 kts 252°
2026-05-06 17:42 52.86142 6.45287 14634 ft 372 kts 252°
2026-05-06 17:42 52.85311 6.41334 14290 ft 364 kts 252°
2026-05-06 17:42 52.84489 6.37421 13931 ft 358 kts 252°
2026-05-06 17:42 52.83628 6.33525 13476 ft 355 kts 247°
2026-05-06 17:43 52.82294 6.30147 12975 ft 354 kts 237°
2026-05-06 17:43 52.80885 6.26806 12386 ft 355 kts 237°
2026-05-06 17:43 52.79484 6.23468 11882 ft 353 kts 237°
2026-05-06 17:43 52.78087 6.20149 11407 ft 351 kts 236°
2026-05-06 17:44 52.76697 6.16851 10916 ft 349 kts 237°
2026-05-06 17:44 52.75312 6.13567 10429 ft 348 kts 236°
2026-05-06 17:44 52.73934 6.10305 10038 ft 345 kts 236°
2026-05-06 17:44 52.72562 6.07062 9930 ft 346 kts 237°
2026-05-06 17:45 52.71189 6.03820 9860 ft 341 kts 237°
2026-05-06 17:45 52.69848 6.00658 9644 ft 332 kts 236°
2026-05-06 17:45 52.68546 5.97593 9459 ft 322 kts 236°
2026-05-06 17:45 52.67279 5.94613 9294 ft 312 kts 236°
2026-05-06 17:46 52.66052 5.91732 9127 ft 303 kts 236°
2026-05-06 17:46 52.64864 5.88942 8991 ft 293 kts 236°
2026-05-06 17:46 52.63709 5.86234 8748 ft 287 kts 236°
2026-05-06 17:46 52.62560 5.83545 8408 ft 286 kts 236°
2026-05-06 17:47 52.61416 5.80868 8026 ft 286 kts 236°
2026-05-06 17:47 52.60274 5.78197 7718 ft 284 kts 236°
2026-05-06 17:47 52.59129 5.75525 7328 ft 287 kts 236°
2026-05-06 17:47 52.57991 5.72867 7123 ft 282 kts 235°
2026-05-06 17:48 52.56854 5.70234 6914 ft 281 kts 235°
2026-05-06 17:48 52.55729 5.67609 6798 ft 281 kts 235°
2026-05-06 17:48 52.54595 5.64969 6421 ft 283 kts 235°
2026-05-06 17:48 52.53461 5.62334 6048 ft 284 kts 235°
2026-05-06 17:49 52.52317 5.59680 5698 ft 284 kts 235°
2026-05-06 17:49 52.51189 5.57043 5389 ft 283 kts 237°
2026-05-06 17:49 52.50187 5.54299 5173 ft 278 kts 240°
2026-05-06 17:49 52.49196 5.51558 4730 ft 282 kts 239°
2026-05-06 17:50 52.48195 5.48815 4479 ft 278 kts 239°
2026-05-06 17:50 52.47194 5.46093 4398 ft 280 kts 239°
2026-05-06 17:50 52.46190 5.43369 4398 ft 280 kts 239°
2026-05-06 17:50 52.45181 5.40642 4434 ft 279 kts 239°
2026-05-06 17:51 52.44177 5.37930 4470 ft 279 kts 239°
2026-05-06 17:51 52.43166 5.35204 4483 ft 280 kts 239°
2026-05-06 17:51 52.42165 5.32507 4481 ft 282 kts 239°
2026-05-06 17:51 52.41144 5.29761 4495 ft 282 kts 239°
2026-05-06 17:52 52.40125 5.27023 4489 ft 280 kts 239°
2026-05-06 17:52 52.39118 5.24316 4489 ft 277 kts 239°
2026-05-06 17:52 52.38113 5.21622 4494 ft 278 kts 239°
2026-05-06 17:52 52.37108 5.18930 4494 ft 277 kts 239°
2026-05-06 17:53 52.36096 5.16221 4486 ft 280 kts 239°
2026-05-06 17:53 52.35086 5.13522 4493 ft 277 kts 239°
2026-05-06 17:53 52.34082 5.10838 4435 ft 274 kts 239°
2026-05-06 17:53 52.33094 5.08189 4096 ft 274 kts 239°
2026-05-06 17:54 52.32091 5.05513 3685 ft 277 kts 239°
2026-05-06 17:54 52.31088 5.02851 3367 ft 275 kts 239°
2026-05-06 17:54 52.30087 5.00184 3034 ft 275 kts 239°
2026-05-06 17:54 52.29069 4.97546 2760 ft 273 kts 238°
2026-05-06 17:55 52.28018 4.94964 2379 ft 274 kts 237°
2026-05-06 17:55 52.26973 4.92381 2085 ft 272 kts 237°
2026-05-06 17:55 52.25928 4.89815 1986 ft 273 kts 237°
2026-05-06 17:55 52.24871 4.87230 1986 ft 276 kts 237°
2026-05-06 17:56 52.23803 4.84624 2007 ft 275 kts 237°
2026-05-06 17:56 52.22748 4.82034 1989 ft 274 kts 237°
2026-05-06 17:56 52.21718 4.79498 1995 ft 262 kts 238°
2026-05-06 17:56 52.20737 4.77086 1990 ft 249 kts 237°
2026-05-06 17:57 52.19790 4.74748 2009 ft 246 kts 237°
2026-05-06 17:57 52.18849 4.72432 2012 ft 245 kts 237°
2026-05-06 17:57 52.17911 4.70139 2012 ft 242 kts 237°
2026-05-06 17:57 52.16996 4.67893 1988 ft 241 kts 237°
2026-05-06 17:58 52.16064 4.65625 2000 ft 240 kts 238°
2026-05-06 17:58 52.15188 4.63283 1969 ft 238 kts 253°
2026-05-06 17:58 52.15138 4.60741 1942 ft 226 kts 294°
2026-05-06 17:58 52.16064 4.58784 1992 ft 219 kts 327°
2026-05-06 17:59 52.17356 4.57444 2008 ft 221 kts 332°
2026-05-06 17:59 52.18633 4.56203 2020 ft 206 kts 335°
2026-05-06 17:59 52.19916 4.55819 1964 ft 175 kts 18°
2026-05-06 17:59 52.20948 4.56651 2078 ft 164 kts 32°
2026-05-06 18:00 52.21930 4.57614 2046 ft 166 kts 32°
2026-05-06 18:00 52.22891 4.58641 1992 ft 165 kts 40°
2026-05-06 18:00 52.23666 4.60021 1931 ft 166 kts 53°
2026-05-06 18:00 52.24258 4.61578 1741 ft 153 kts 58°
2026-05-06 18:01 52.24781 4.63000 1550 ft 143 kts 56°
2026-05-06 18:01 52.25298 4.64340 1359 ft 134 kts 56°
2026-05-06 18:01 52.25783 4.65599 1175 ft 129 kts 56°
2026-05-06 18:01 52.26258 4.66834 1005 ft 127 kts 55°
2026-05-06 18:02 52.26724 4.68052 815 ft 128 kts 56°
2026-05-06 18:02 52.27200 4.69282 678 ft 128 kts 55°
2026-05-06 18:02 52.27681 4.70516 481 ft 131 kts 56°
2026-05-06 18:02 52.28172 4.71797 308 ft 135 kts 56°
2026-05-06 18:03 52.28667 4.73088 124 ft 134 kts 57°
2026-05-06 18:03 52.29152 4.74358 31 ft 128 kts 56°
2026-05-06 18:03 52.29608 4.75518 21 ft 114 kts 59°
2026-05-06 18:03 52.29944 4.76403 17 ft 55 kts 53°
2026-05-06 18:04 52.30186 4.76674 20 ft 19 kts 28°
2026-05-06 18:04 52.30194 4.76681 18 ft 0 kts 27°
2026-05-06 18:04 52.30238 4.76717 19 ft 15 kts 27°
2026-05-06 18:05 52.30342 4.76899 14 ft 27 kts 58°
2026-05-06 18:05 52.30449 4.77177 13 ft 30 kts 58°
2026-05-06 18:05 52.30562 4.77467 16 ft 26 kts 55°
2026-05-06 18:05 52.30716 4.77594 16 ft 27 kts
2026-05-06 18:06 52.30911 4.77611 15 ft 29 kts
2026-05-06 18:06 52.31120 4.77630 16 ft 31 kts
2026-05-06 18:06 52.31340 4.77652 18 ft 32 kts
2026-05-06 18:06 52.31539 4.77517 15 ft 34 kts 309°
2026-05-06 18:07 52.31572 4.77135 12 ft 36 kts 267°
2026-05-06 18:07 52.31557 4.76718 14 ft 38 kts 266°
2026-05-06 18:07 52.31544 4.76296 19 ft 38 kts 265°
2026-05-06 18:07 52.31529 4.75859 18 ft 40 kts 266°
2026-05-06 18:08 52.31515 4.75474 14 ft 25 kts 256°
2026-05-06 18:08 52.31391 4.75414 11 ft 21 kts 174°
2026-05-06 18:08 52.31226 4.75428 7 ft 26 kts 176°
2026-05-06 18:08 52.31100 4.75370 3 ft 17 kts 216°
2026-05-06 18:09 52.31012 4.75403 0 ft 0 kts 148°